Tracking 29892 objects as of 21-Nov-2024
HD Live streaming from Space Station
objects crossing your sky now

CZ-6A DEB

Track CZ-6A DEB now!
10-day predictions


NORAD ID: 55894
Int'l Code: 2022-151AAS
Perigee: 631.4 km
Apogee: 751.9 km
Inclination: 98.7 °
Period: 98.4 minutes
Semi major axis: 7062 km
RCS: Unknown
Launch date: November 11, 2022
Source: People's Republic of China (PRC)
Launch site: Taiyaun Space Center, China (TSC)

Note: This is SATELLITE DEBRIS
Your satellite tracking list
Your tracking list is empty




NASA's NSSDC Master Catalog

Two Line Element Set (TLE):
1 55894U 22151AAS 24325.57431156  .00038438  00000-0  71380-2 0  9997
2 55894  98.6609 356.8662 0085280 242.7166 116.5330 14.62696070101392
Source of the keplerian elements: AFSPC